Terminal Aerodrome Forecast
Issued by NWS Tulsa, OK

Home | Current Version | Previous Version | Text Only | Print | Product List | Glossary On
Versions: 1 2 3 4 5 6 7 8 9 10 11 12 13 14 15 16 17 18 19
000
FTUS44 KTSA 242300
TAFTUL
TAF
KTUL 242320Z 2500/2524 33015G25KT P6SM SCT070
     FM250200 31006KT P6SM SKC
     FM250900 VRB03KT P6SM SKC
     FM251500 18012KT P6SM FEW250
     FM251800 17014G20KT P6SM SKC=

USA.gov is the U.S. government's official web portal to all federal, state and local government web resources and services.